Find ICEYE-X42

NORAD ID: 62698 Int'l Des: 2025-009 Owner: SP42 Country: UAE operational
LEOCIRCULARRETROGRADESSO

リアルタイム位置

3D地球を読み込み中...

ICEYE-X42について

説明を読み込み中...

次回通過

Passes for default location (London). Set your location on the main map for personalized predictions.

高度履歴

Loading altitude history...

軌道要素

1 62698U 25009CT 26106.23195225 .00001500 00000-0 15407-3 0 9997
2 62698 97.7390 185.6585 0001460 115.6771 244.4599 14.91849049 68050
Epoch: Apr 16, 2026 • Age: 11 hours

現在のステータス

高度 618.3 km
速度 7.55 km/s
衛星直下点 -66.27°S, 111.18°E
打ち上げ日 Jan 14, 2025
運用期間 1.2 years
タイプ earth observation

技術仕様

分類 Payload
質量 80.00 kg
乾燥質量 80.00 kg
総質量 80.00 kg
長さ 0.80 m
直径 0.60 m
スパン 1.50 m
形状 Box + pan
製造者 ICEYE
バスタイプ ICEYE
フェーズステータス In Orbit
所有者/国 SP42/UAE

Most Searched